Weather History for Wayne, NE

Change the Weather History Date:

Friday, October 5, 2012

  Actual Average (KOFK) Record (KOFK)
Temperature  
Mean Temperature 38 °F 55 °F  
Max Temperature 52 °F 68 °F 95 °F (1990)
Min Temperature 24 °F 42 °F 26 °F (1988)
Degree Days  
Heating Degree Days 27 10  
Month to date heating degree days 48  
Since 1 July heating degree days 190  
Cooling Degree Days 0 1  
Month to date cooling degree days 5  
Year to date cooling degree days 911  
Moisture  
Dew Point 25 °F    
Average Humidity 64    
Maximum Humidity 91    
Minimum Humidity 34    
Precipitation  
Precipitation 0.00 in 0.08 in 1.47 in (1995)
Month to date precipitation 0.42  
Year to date precipitation 23.64  
Snow  
Snow 0.00 in 0.00 in - ()
Month to date snowfall 0.0  
Since 1 July snowfall T  
Snow Depth -    
Sea Level Pressure  
Sea Level Pressure 30.30 in    
Wind  
Wind Speed 5 mph (NW)    
Max Wind Speed 20 mph    
Max Gust Speed 25 mph    
Visibility 10 miles    
Events      
T = Trace of Precipitation, MM = Missing Value Source: NWS Daily Summary

Daily Weather History Graph

Daily Weather History Graph

Search for Another Location

Airport:

Trip Planner

Search our weather history database for the weather conditions in past years. The results will help you decide how hot, cold, wet, or windy it might be!

Date:

Astronomy

Oct. 05, 2012 Rise Set
Actual Time 7:29 AM CDT 7:01 PM CDT
Civil Twilight 7:01 AM CDT 7:29 PM CDT
Nautical Twilight 6:29 AM CDT 8:02 PM CDT
Astronomical Twilight 5:56 AM CDT 8:34 PM CDT
Moon 10:21 PM CDT (10/5) 12:43 PM CDT (10/5)
Length of Visible Light 12h 27m
Length of Day
11h 31m
Waning Gibbous, 74% of the Moon is Illuminated
Oct 5
Waning Gibbous
Oct 8
Last Quarter
Oct 15
New
Oct 21
First Quarter
Oct 29
Full

Hourly Weather History & Observations

Time (CDT) Temp. Windchill Dew Point Humidity Pressure Visibility Wind Dir Wind Speed Gust Speed Precip Events Conditions
12:15 AM 29.3 °F - 25.3 °F 85% 30.33 in 10.0 mi Calm Calm - N/A   Clear
12:35 AM 28.0 °F - 24.4 °F 86% 30.33 in 10.0 mi Calm Calm - N/A   Clear
12:55 AM 27.5 °F - 24.4 °F 88% 30.33 in 10.0 mi Calm Calm - N/A   Clear
1:15 AM 28.2 °F - 24.8 °F 87% 30.32 in 10.0 mi Calm Calm - N/A   Clear
1:35 AM 27.5 °F - 24.4 °F 88% 30.32 in 10.0 mi Calm Calm - N/A   Clear
1:55 AM 26.6 °F - 23.4 °F 88% 30.31 in 10.0 mi Calm Calm - N/A   Clear
2:15 AM 26.6 °F - 23.9 °F 90% 30.31 in 10.0 mi Calm Calm - N/A   Clear
2:35 AM 27.9 °F - 24.6 °F 88% 30.31 in 10.0 mi Calm Calm - N/A   Clear
2:55 AM 27.1 °F - 23.9 °F 88% 30.31 in 10.0 mi Calm Calm - N/A   Clear
3:15 AM 25.2 °F - 22.8 °F 91% 30.31 in 10.0 mi Calm Calm - N/A   Clear
3:35 AM 24.8 °F - 22.3 °F 90% 30.31 in 10.0 mi Calm Calm - N/A   Clear
3:55 AM 26.6 °F - 24.3 °F 91% 30.30 in 10.0 mi Calm Calm - N/A   Clear
4:15 AM 26.8 °F 22.8 °F 24.3 °F 90% 30.30 in 10.0 mi SSW 3.5 mph - N/A   Clear
4:35 AM 27.5 °F 23.6 °F 25.0 °F 90% 30.30 in 10.0 mi SSW 3.5 mph - N/A   Clear
4:55 AM 28.9 °F 22.8 °F 26.2 °F 90% 30.30 in 10.0 mi SSW 5.8 mph - N/A   Clear
5:15 AM 29.8 °F 24.9 °F 26.4 °F 87% 30.29 in 10.0 mi SW 4.6 mph - N/A   Clear
5:35 AM 31.1 °F 27.7 °F 27.3 °F 86% 30.30 in 10.0 mi SW 3.5 mph - N/A   Clear
5:55 AM 29.3 °F 25.6 °F 26.6 °F 90% 30.30 in 10.0 mi SW 3.5 mph - N/A   Clear
6:15 AM 27.7 °F - 24.6 °F 88% 30.30 in 10.0 mi Calm Calm - N/A   Clear
6:35 AM 30.0 °F 26.5 °F 27.3 °F 90% 30.30 in 10.0 mi WNW 3.5 mph - N/A   Clear
6:55 AM 28.6 °F 23.5 °F 26.1 °F 90% 30.30 in 10.0 mi NW 4.6 mph - N/A   Clear
7:15 AM 32.2 °F 25.0 °F 28.4 °F 86% 30.31 in 10.0 mi NW 8.1 mph - N/A   Clear
7:35 AM 32.5 °F 28.1 °F 28.2 °F 84% 30.31 in 10.0 mi WNW 4.6 mph - N/A   Scattered Clouds
7:55 AM 32.0 °F 28.7 °F 27.9 °F 85% 30.32 in 10.0 mi WNW 3.5 mph - N/A   Clear
8:15 AM 34.0 °F 31.0 °F 28.9 °F 82% 30.32 in 10.0 mi WNW 3.5 mph - N/A   Clear
8:35 AM 34.9 °F 29.9 °F 28.6 °F 78% 30.33 in 10.0 mi WSW 5.8 mph - N/A   Clear
8:55 AM 35.8 °F 30.9 °F 29.1 °F 77% 30.33 in 10.0 mi West 5.8 mph - N/A   Clear
9:15 AM 37.4 °F 31.4 °F 28.8 °F 71% 30.33 in 10.0 mi NW 8.1 mph - N/A   Scattered Clouds
9:35 AM 38.5 °F 32.7 °F 28.4 °F 67% 30.34 in 10.0 mi WNW 8.1 mph - N/A   Scattered Clouds
9:55 AM 38.8 °F 32.6 °F 28.2 °F 66% 30.34 in 10.0 mi NW 9.2 mph - N/A   Scattered Clouds
10:15 AM 38.7 °F 32.4 °F 28.4 °F 67% 30.35 in 10.0 mi NW 9.2 mph - N/A   Mostly Cloudy
10:35 AM 39.0 °F 32.3 °F 28.6 °F 66% 30.34 in 10.0 mi NW 10.4 mph - N/A   Mostly Cloudy
10:55 AM 39.2 °F 32.5 °F 28.6 °F 66% 30.34 in 10.0 mi NW 10.4 mph - N/A   Scattered Clouds
11:35 AM 41.0 °F 33.1 °F 28.8 °F 62% 30.36 in 10.0 mi WNW 15.0 mph - N/A   Clear
11:55 AM 41.4 °F 34.7 °F 28.4 °F 60% 30.35 in 10.0 mi NW 11.5 mph 18.4 mph N/A   Clear
12:15 PM 42.1 °F 34.5 °F 27.9 °F 57% 30.35 in 10.0 mi NW 15.0 mph 19.6 mph N/A   Clear
12:35 PM 43.5 °F 36.4 °F 27.7 °F 54% 30.35 in 10.0 mi NW 15.0 mph - N/A   Clear
12:55 PM 44.2 °F 37.6 °F 26.6 °F 50% 30.34 in 10.0 mi WNW 13.8 mph 19.6 mph N/A   Clear
1:35 PM 46.6 °F - 26.8 °F 46% 30.32 in 10.0 mi NW 11.5 mph 23.0 mph N/A   Scattered Clouds
1:55 PM 47.7 °F - 24.3 °F 40% 30.31 in 10.0 mi NW 15.0 mph 25.3 mph N/A   Scattered Clouds
2:15 PM 48.9 °F - 23.9 °F 38% 30.30 in 10.0 mi NW 16.1 mph 20.7 mph N/A   Clear
2:35 PM 50.2 °F - 23.9 °F 36% 30.28 in 10.0 mi NW 15.0 mph 23.0 mph N/A   Clear
2:55 PM 50.9 °F - 24.4 °F 36% 30.28 in 10.0 mi NNW 10.4 mph 18.4 mph N/A   Clear
3:15 PM 51.6 °F - 23.9 °F 34% 30.27 in 10.0 mi NNW 17.3 mph 21.9 mph N/A   Clear
3:35 PM 52.0 °F - 24.3 °F 34% 30.26 in 10.0 mi NW 17.3 mph 23.0 mph N/A   Clear
3:55 PM 52.0 °F - 24.6 °F 35% 30.25 in 10.0 mi NNW 12.7 mph 21.9 mph N/A   Clear
4:15 PM 52.5 °F - 24.6 °F 34% 30.25 in 10.0 mi NW 17.3 mph 24.2 mph N/A   Clear
4:35 PM 51.8 °F - 24.4 °F 34% 30.25 in 10.0 mi NNW 19.6 mph 24.2 mph N/A   Clear
4:55 PM 51.6 °F - 24.3 °F 34% 30.25 in 10.0 mi NNW 15.0 mph 21.9 mph N/A   Clear
5:15 PM 51.8 °F - 24.3 °F 34% 30.25 in 10.0 mi NNW 17.3 mph - N/A   Clear
5:35 PM 51.4 °F - 24.3 °F 35% 30.25 in 10.0 mi NNW 15.0 mph 19.6 mph N/A   Clear
5:55 PM 50.7 °F - 23.9 °F 35% 30.25 in 10.0 mi NNW 16.1 mph 23.0 mph N/A   Clear
6:15 PM 50.0 °F - 23.5 °F 36% 30.26 in 10.0 mi NW 12.7 mph - N/A   Clear
6:35 PM 48.9 °F - 22.6 °F 36% 30.26 in 10.0 mi NW 11.5 mph 19.6 mph N/A   Clear
6:55 PM 46.9 °F - 22.1 °F 38% 30.27 in 10.0 mi NW 11.5 mph - N/A   Clear
7:15 PM 45.3 °F 41.1 °F 22.1 °F 40% 30.27 in 10.0 mi NW 8.1 mph - N/A   Clear
7:35 PM 43.3 °F 39.2 °F 22.3 °F 43% 30.27 in 10.0 mi NW 6.9 mph - N/A   Clear
7:55 PM 40.6 °F 36.7 °F 21.7 °F 47% 30.28 in 10.0 mi NW 5.8 mph - N/A   Clear
8:15 PM 40.1 °F 36.1 °F 21.7 °F 48% 30.28 in 10.0 mi WNW 5.8 mph - N/A   Clear
8:35 PM 38.3 °F 33.9 °F 21.4 °F 51% 30.29 in 10.0 mi NW 5.8 mph - N/A   Clear
8:55 PM 37.4 °F 32.1 °F 21.2 °F 52% 30.29 in 10.0 mi WNW 6.9 mph - N/A   Clear
9:15 PM 36.9 °F 32.2 °F 21.7 °F 54% 30.29 in 10.0 mi NW 5.8 mph - N/A   Clear
9:35 PM 36.5 °F 31.8 °F 21.7 °F 55% 30.30 in 10.0 mi NW 5.8 mph - N/A   Clear
9:55 PM 33.8 °F 30.8 °F 20.5 °F 58% 30.30 in 10.0 mi NW 3.5 mph - N/A   Clear
10:35 PM 32.2 °F - 20.1 °F 61% 30.31 in 10.0 mi Calm Calm - N/A   Clear
10:55 PM 30.4 °F - 19.8 °F 65% 30.31 in 10.0 mi Calm Calm - N/A   Clear
11:15 PM 29.8 °F - 19.6 °F 66% 30.32 in 10.0 mi Calm Calm - N/A   Clear
11:35 PM 30.2 °F 25.4 °F 19.8 °F 65% 30.32 in 10.0 mi NW 4.6 mph - N/A   Clear
11:55 PM 32.5 °F 24.8 °F 20.3 °F 61% 30.33 in 10.0 mi NW 9.2 mph - N/A   Clear